Simultaneous Nadir Overpasses (SNOs) Predictions

Prediction of SNOs between NOAA-19 and TERRA Satellite Orbit:

Table of predicted SNOs for the next 14.0 days since TLE Epoch: 9/12/2020
Index Date (NOAA-19) Time (NOAA-19) Lat,Lon (NOAA-19) SZA (NOAA-19 ) Date (TERRA) Time (TERRA) Lat,Lon (TERRA) SZA (TERRA ) Distance(km) Time Diff (sec)
1 09/12/2020 18:38:02 -79.72, 110.02 102.66 09/12/2020 18:38:32 -79.69, 110.01 102.68 3.53 30
2 09/12/2020 19:29:06 79.67, -82.22 77.37 09/12/2020 19:27:58 79.70, -82.29 77.36 3.21 68
3 09/15/2020 00:11:23 79.72,-153.24 78.23 09/15/2020 00:12:15 79.70,-153.33 78.22 2.77 52
4 09/15/2020 01:02:17 -79.71, 14.21 101.76 09/15/2020 01:01:42 -79.70, 14.29 101.78 1.77 35
5 09/17/2020 06:35:38 79.71, 110.95 79.13 09/17/2020 06:35:25 79.71, 110.92 79.12 0.64 13
6 09/19/2020 12:08:48 -79.72,-152.37 99.99 09/19/2020 12:09:09 -79.71,-152.49 100.00 2.43 21
7 09/19/2020 12:59:45 79.47, 17.44 80.07 09/19/2020 12:58:40 79.53, 13.82 79.73 73.69 65
8 09/21/2020 17:42:09 79.72, -55.68 80.90 09/21/2020 17:42:51 79.75, -55.64 80.94 2.89 42
9 09/21/2020 18:33:03 -79.71, 111.80 99.08 09/21/2020 18:32:19 -79.72, 111.76 99.10 1.59 44
10 09/23/2020 23:15:24 -79.86, 39.53 98.24 09/23/2020 23:16:36 -79.72, 40.69 98.23 27.94 72
